Location: Austin
(30.3000°N, 97.7500°W)
Time: 06:42:44
(UTC-05:00)

H-2A R/B - Pass Details

Date: 16 June 2025
Orbit: 555 x 621 km, 98.4° (Epoch: 07 July)

Event Time Altitude Azimuth Distance (km) Brightness Sun altitude
Rises 02:47:23 0° 26° (NNE) 2,744 6.5 -33.4°
Reaches altitude 10° 02:49:44 10° 37° (NE) 1,851 5.3 -33.2°
Enters shadow 02:51:01 18° 50° (NE) 1,423 4.5 -33.1°
